Location: *
(45.1961°N, 1.9694°E)
Time: 12:32:57
(UTC+00:00)

Meteor 2-4 Rocket - Pass Details

Date: 25 August 2019
Orbit: 798 x 909 km, 81.2° (Epoch: 19 September)

Event Time Altitude Azimuth Distance (km) Brightness Sun altitude
Rises 19:00:31 0° 356° (N) 3,324 7.1 -3.8°
Reaches altitude 10° 19:03:08 10° 6° (N) 2,384 6.3 -4.2°
Maximum altitude 19:08:01 35° 71° (ENE) 1,277 4.3 -5.0°
Drops below altitude 10° 19:12:53 10° 137° (SE) 2,377 5.5 -5.8°
Enters shadow 19:14:54 - 144° (SE) 3,107 6.1 -6.2°
